Location: Newark
(40.3500°N, 15.2333°E)
Time: 05:05:25
(UTC+00:00)

Altair - Pass Details

Date: 21 January 2020
Orbit: 1502 x 1682 km, 47.2° (Epoch: 17 February)

Event Time Altitude Azimuth Distance (km) Brightness Sun altitude
Rises 05:24:00 0° 166° (SSE) 4,847 10.6 -10.3°
Reaches altitude 10° 05:30:33 10° 135° (SE) 3,905 10.8 -9.1°
Maximum altitude 05:33:05 11° 120° (ESE) 3,822 11.1 -8.6°
Drops below altitude 10° 05:35:38 10° 105° (ESE) 3,929 11.4 -8.2°
Sets 05:42:14 0° 75° (ENE) 4,936 11.1 -7.0°
